Regional Weather Roundup
Issued by NWS

Home | Current Version | Previous Version | Graphics & Text | Print | Product List | Glossary On
Versions: 1 2 3 4 5 6 7 8 9 10 11 12 13 14 15 16 17 18 19 20 21 22 23 24 25 26 27 28 29 30 31 32 33 34 35 36 37 38 39 40 41 42 43 44 45 46 47 48 49 50
000
ASUS45 KBOU 131410
RWRCO

WEATHER ROUNDUP FOR COLORADO
NATIONAL WEATHER SERVICE DENVER/BOULDER CO
800 AM MDT SUN JUL 13 2014

NOTE: "FAIR" INDICATES FEW OR NO CLOUDS BELOW 12000 FEET WITH NO
SIGNIFICANT WEATHER AND/OR OBSTRUCTIONS TO VISIBILITY.

COZ001>005-013-030-031-131500-
...NORTHWEST COLORADO...

CITY           SKY/WX    TMP DP  RH WIND       PRES   REMARKS
CRAIG          SUNNY     57  55  93 CALM      30.39R
HAYDEN         SUNNY     63  50  63 CALM      30.40R
MEEKER         SUNNY     60  51  72 CALM      30.38R
MOUNT WERNER   NOT AVBL
STEAMBOAT SPGS SUNNY     57  47  70 CALM      30.42R
WALDEN         SUNNY     52  43  71 CALM      30.51R
$$

COZ006>008-011-131500-
...WEST CENTRAL VALLEYS...

CITY           SKY/WX    TMP DP  RH WIND       PRES   REMARKS
GRAND JUNCTION SUNNY     76  50  40 SE14      30.24R
MONTROSE       MOSUNNY   67  49  52 SE6       30.34R
EAGLE          MOSUNNY   59  54  82 CALM      30.43S
RIFLE          SUNNY     65  55  70 CALM      30.31R
DELTA          MOSUNNY   73  52  48 CALM      30.30R
NUCLA          MOSUNNY   70  46  43 SE9       30.37R
$$

COZ017>023-064>068-131500-
...SOUTHWEST COLORADO...

CITY           SKY/WX    TMP DP  RH WIND       PRES   REMARKS
DURANGO        SUNNY     63  51  65 CALM      30.39R
CORTEZ         SUNNY     69  51  52 N7        30.32R
PAGOSA SPRINGS SUNNY     64  48  57 W3        30.47R
TELLURIDE      MOSUNNY   61  46  59 CALM      30.56R
WOLF CREEK PAS NOT AVBL
$$

COZ009-010-012-014-032>034-037-058>063-131500-
...CENTRAL COLORADO...

CITY           SKY/WX    TMP DP  RH WIND       PRES   REMARKS
ASPEN          MOSUNNY   58  47  66 CALM      30.47R
BUENA VISTA    MOSUNNY   58  51  75 N3        30.52R
COPPER MTN     MOSUNNY   54  41  62 W10       30.77R
BERTHOUD PASS  FAIR      45  32  61 CALM      30.81R
COTTONWOOD PAS MOSUNNY   55  50  82 CALM      30.63R
GUNNISON       MOSUNNY   54  46  76 CALM      30.53R
KREMMLING      SUNNY     55  46  71 CALM      30.49S
LEADVILLE      CLOUDY    49  46  90 CALM      30.62S
MONARCH PASS   SUNNY     46  39  76 SW8       30.86R
SALIDA         MOSUNNY   59  52  78 CALM      30.57R
SUNLIGHT       MOSUNNY   59  48  67 CALM      30.68S
WILKERSON PASS SUNNY     48  45  87 CALM      30.74S
$$

COZ069>075-131500-
...SAN LUIS VALLEY/SANGRE DE CRISTO MOUNTAINS...

CITY           SKY/WX    TMP DP  RH WIND       PRES   REMARKS
ALAMOSA        MOSUNNY   58  52  80 S5        30.47R
LA VETA PASS   MOSUNNY   54  46  76 E3        30.65R
SAGUACHE       NOT AVBL
$$

COZ035-036-038>040-131500-
...NORTHERN COLORADO FRONT RANGE...

CITY           SKY/WX    TMP DP  RH WIND       PRES   REMARKS
DENVER INTL AP MOSUNNY   67  59  75 SW6       30.34R
DMNS CITY PARK   N/A     68  56  65 S3        30.33S
AURORA         PTSUNNY   65  58  78 SW6       30.36R
FRONT RANGE AP NOT AVBL
ERIE MUNI ARPT SUNNY     67  57  71 CALM      30.32S
BOULDER MUN AP SUNNY     70  50  49 CALM      30.33R
CENTENNIAL     PTSUNNY   66  56  70 SW8       30.36S
BROOMFIELD     MOSUNNY   66  55  68 SW3       30.35S
FORT COLLINS   SUNNY     66  57  72 N6        30.34R
LONGMONT       SUNNY     71  57  60 CALM      30.34R
$$

COZ041-046-047-076>085-087-088-131500-
...PIKES PEAK/PALMER DIVIDE AND SOUTHERN FOOTHILLS...

CITY           SKY/WX    TMP DP  RH WIND       PRES   REMARKS
COLO. SPRINGS  PTSUNNY   68  57  68 NW7       30.39S
A. F. ACADEMY  SUNNY     64  58  81 N6        30.40S
ELLICOTT       NOT AVBL
FALCON         SUNNY     65  55  69 N9        30.42F
FORT CARSON    SUNNY     66  57  73 N8        30.36S
LIMON          MOSUNNY   67  59  75 N7        30.33S
MONUMENT HILL  SUNNY     61  54  77 NW6       30.43S
TRINIDAD       PTSUNNY   65  59  81 W7        30.37S
$$

COZ042>045-048>051-090-091-131500-
...NORTHEAST COLORADO...

CITY           SKY/WX    TMP DP  RH WIND       PRES   REMARKS
GREELEY ARPT   NOT AVBL
AKRON          SUNNY     72  61  68 CALM      30.30R
BURLINGTON     PTSUNNY   71  63  75 N13       30.24R
WRAY           SUNNY     71  66  85 CALM      30.24S
STERLING       SUNNY     70  64  83 N5        30.27R
HOLYOKE        SUNNY     73  63  68 N5        30.25R
FORT MORGAN    SUNNY     69  58  66 NW5       30.30S
$$

COZ086-089-092>099-131500-
...SOUTHEAST COLORADO...

CITY           SKY/WX    TMP DP  RH WIND       PRES   REMARKS
PUEBLO         MOSUNNY   67  63  87 W9        30.30S
LA JUNTA       PTSUNNY   70  64  81 W12       30.27R
LAMAR          PTSUNNY   70  64  81 S5        30.22R
SPRINGFIELD      N/A     69  60  73 N9        30.29R
$$



USA.gov is the U.S. government's official web portal to all federal, state and local government web resources and services.